Location: Riverside
(39.1734°N, 77.8561°W)
Time: 02:48:55
(UTC+00:00)

Hubble Space Telescope - Pass Details

Date: 21 November 2019
Orbit: 536 x 540 km, 28.5° (Epoch: 06 December)

Event Time Altitude Azimuth Distance (km) Brightness Sun altitude
Rises 00:15:52 0° 239° (WSW) 2,669 5.3 -27.4°
Reaches altitude 10° 00:18:40 10° 219° (SW) 1,779 3.9 -27.9°
Enters shadow 00:20:03 15° 202° (SSW) 1,474 3.2 -28.2°
